Wetbulb
58.45 54.66 50.96 51.33 42.37 38.15 35.08 37.75 40.31 43.21 42.74 44.15 46.73 48.24 48.86 46.81 48.15 46.03 51.77 52.55 53.48 59.31 63.84 63.28 67.24 69.43 70.68 70.96 70.77 70.51 70.34 70.29 70.46 70.46 70.42 70.39 70.03 69.35 68.70 68.09 68.84 68.82 67.12 66.75 66.23 66.49 66.95 66.10 65.21
56.83 55.71 51.71 45.77 35.90 33.38 34.96 39.44 40.29 41.51 44.91 45.71 50.59 48.79 46.84 43.61 48.78 48.77 48.24 52.35 52.83 57.93 60.94 61.53 65.51 67.74 68.83 69.96 70.23 69.85 69.98 69.92 70.02 70.08 70.07 69.59 69.50 69.53 68.68 67.96 67.93 68.19 67.18 66.49 65.75 67.20 66.27 65.36 64.72
55.32 54.84 46.82 40.30 34.09 32.94 34.66 38.72 39.53 43.73 45.61 44.74 44.99 47.63 45.68 44.39 47.63 47.79 50.14 51.73 52.08 54.46 57.19 60.67 63.56 63.95 66.25 67.65 68.82 69.36 69.32 69.76 69.62 69.89 69.92 69.61 68.91 69.01 68.83 67.97 67.81 67.62 66.55 66.00 66.91 66.80 65.22 63.89 64.64
51.21 48.87 43.75 38.89 35.61 37.90 38.54 39.18 41.14 41.63 43.84 45.67 45.38 43.25 46.06 48.26 47.83 48.49 50.91 51.23 50.36 51.83 55.16 59.03 61.94 61.75 62.17 63.92 65.36 67.49 68.71 68.79 69.35 69.24 69.52 69.51 68.91 68.26 68.51 68.57 68.40 67.73 66.56 65.71 66.39 65.97 65.15 63.91 64.05
50.14 44.68 37.73 34.24 34.92 37.08 38.68 41.34 41.23 40.93 40.49 42.22 43.60 42.13 43.34 47.09 48.88 49.63 49.37 50.40 49.07 50.91 52.73 54.85 59.53 60.60 60.99 61.24 61.86 63.01 65.27 67.89 68.42 68.85 68.95 69.29 69.42 69.03 68.28 68.05 67.65 67.84 67.43 66.16 66.05 64.40 63.75 64.02 63.44
44.21 41.46 35.40 33.43 35.17 38.44 39.16 40.94 40.33 39.95 41.58 41.66 41.26 42.86 42.13 47.18 46.62 47.89 48.78 48.15 49.51 50.28 51.65 52.34 55.19 57.92 58.53 59.63 60.41 60.61 61.40 62.78 65.07 67.85 68.83 69.20 69.18 69.15 68.53 67.70 67.32 67.62 67.69 66.59 66.20 65.03 64.49 63.53 63.03
42.15 36.97 33.23 33.92 36.57 37.44 40.59 41.22 39.06 38.87 39.40 40.34 43.89 40.67 43.03 44.04 47.02 47.58 47.39 47.92 48.44 49.63 50.40 50.02 51.43 53.23 54.92 56.25 58.44 59.27 60.07 60.33 61.20 62.39 66.66 67.88 68.01 68.23 67.82 67.44 67.07 67.78 67.91 67.46 66.55 65.28 63.92 63.40 62.97
41.70 38.19 33.53 33.99 35.66 36.45 40.00 40.91 42.34 40.49 39.71 44.95 43.68 38.53 38.15 43.31 46.62 46.76 47.17 47.11 47.16 48.32 49.06 48.79 49.34 50.75 51.13 52.04 55.97 57.72 58.44 59.56 59.50 59.88 60.92 64.04 64.97 66.00 65.77 64.77 65.88 67.14 67.58 67.22 65.97 65.14 64.03 63.43 62.58
43.06 35.50 32.35 34.30 35.66 36.80 40.33 39.92 42.41 43.82 39.84 42.02 43.92 42.15 43.46 45.79 45.89 44.94 43.94 44.66 45.64 47.52 47.56 48.10 48.34 49.04 50.00 51.33 53.22 54.28 55.78 57.48 58.97 59.58 60.04 61.30 63.92 64.19 63.50 63.32 64.78 66.64 66.74 66.54 65.70 65.34 64.57 63.38 62.51
39.28 33.82 36.14 38.92 38.57 38.13 40.44 39.60 41.03 39.54 39.73 40.05 41.67 43.35 44.94 44.57 43.27 42.76 41.80 41.72 42.94 43.92 46.12 47.34 47.33 48.02 49.02 51.12 50.73 51.47 52.60 53.92 55.42 57.67 59.70 59.60 63.06 63.44 63.71 61.56 62.45 64.52 64.24 65.05 65.37 65.01 63.41 61.31 59.15
39.27 36.25 39.31 41.39 42.11 42.36 41.31 40.14 42.23 39.47 38.18 39.78 39.93 40.91 42.64 42.05 42.15 41.85 41.45 41.56 42.01 43.57 45.08 46.22 47.25 47.78 47.78 48.17 49.37 49.62 50.62 51.25 53.18 54.90 57.81 59.92 59.61 62.47 62.44 62.10 62.11 63.31 59.95 62.10 62.85 62.23 60.23 58.64 57.26
37.39 40.85 42.06 43.52 43.48 42.63 40.50 41.06 39.52 40.82 40.15 43.39 42.73 42.71 41.16 40.53 40.56 40.76 40.89 41.87 41.99 42.50 43.90 45.34 45.85 46.73 47.40 47.56 47.96 48.25 48.36 49.57 50.39 51.51 53.20 55.55 58.89 62.00 62.39 61.95 61.17 62.47 61.61 59.82 59.28 59.12 58.72 58.06 56.64
37.88 39.77 42.76 43.38 42.93 41.63 43.06 40.33 39.90 40.02 41.93 43.16 43.67 42.98 40.77 40.14 40.47 41.58 42.17 42.96 43.17 42.44 43.61 44.15 45.08 46.20 47.22 47.42 47.63 47.61 47.67 48.12 49.24 50.33 51.96 53.62 56.91 58.74 61.79 61.58 60.28 60.85 60.20 59.77 59.18 58.16 57.77 56.98 56.37
40.64 41.32 41.74 42.91 42.45 42.34 40.72 39.31 39.62 39.54 41.93 41.95 42.80 40.60 40.28 40.87 41.22 41.02 41.73 42.12 42.92 43.68 43.44 44.47 44.96 45.68 46.47 46.21 46.83 46.90 47.80 47.93 48.23 49.34 50.87 53.17 54.64 57.86 60.83 61.20 60.39 60.26 60.47 59.61 59.44 58.08 56.67 56.20 55.78
41.75 37.69 39.34 40.77 41.52 40.55 39.86 36.01 37.41 39.60 41.18 41.14 40.95 39.44 40.37 40.81 41.56 40.93 41.22 42.19 42.86 43.43 43.81 44.07 45.44 46.48 45.38 45.45 46.14 46.93 49.13 49.00 48.80 48.42 49.86 50.86 53.74 55.18 58.24 60.52 60.51 60.15 60.39 59.63 59.21 57.83 56.22 54.98 55.09
37.76 36.38 32.12 38.70 40.79 40.63 36.99 31.74 37.27 40.72 39.66 39.63 39.82 38.71 39.54 40.51 40.84 40.44 40.51 42.14 42.82 43.03 43.37 44.22 45.69 45.13 45.91 46.78 47.43 47.62 48.39 48.36 48.33 49.25 49.56 50.71 51.57 53.63 55.96 60.21 59.30 60.69 59.92 59.15 58.55 57.40 55.28 54.01 53.68
34.38 28.53 31.51 35.85 40.96 39.23 37.01 32.01 37.39 40.27 39.16 38.69 38.67 38.30 39.03 39.43 39.11 37.24 38.26 39.81 41.27 41.98 42.07 42.50 43.81 44.49 46.50 47.18 47.32 47.60 48.07 47.95 48.40 49.09 49.80 50.90 50.67 51.94 54.00 58.94 60.42 60.49 59.49 58.60 57.87 56.69 56.00 53.77 53.17
30.39 29.31 31.95 31.31 36.47 37.03 34.90 35.24 38.68 39.92 38.59 38.21 38.34 37.77 37.84 38.76 38.00 38.11 38.09 39.54 39.53 39.59 40.91 42.05 43.81 45.94 46.71 46.82 47.12 47.43 47.56 47.98 48.66 48.70 49.48 50.60 50.22 51.00 53.10 58.17 60.29 60.16 59.59 58.46 57.86 56.93 56.52 55.00 54.06
34.45 31.90 29.85 33.71 37.83 34.45 33.98 34.83 37.16 38.48 38.13 37.19 37.29 37.24 36.64 37.44 37.62 37.92 38.26 38.02 38.03 39.36 40.36 41.61 42.85 45.33 45.64 45.54 45.19 45.68 45.62 46.82 47.87 48.86 50.02 50.94 50.09 50.91 53.39 58.28 59.83 59.27 58.70 58.20 57.71 57.02 55.77 54.86 55.09
34.12 30.51 29.50 33.91 36.56 34.41 32.79 33.74 37.55 37.70 37.10 38.30 38.68 37.38 36.65 37.78 36.89 37.17 37.45 36.99 36.99 38.35 39.81 41.75 43.14 44.73 45.30 45.56 45.57 46.49 46.60 47.26 47.96 49.13 50.22 52.19 50.56 51.64 53.45 59.11 59.00 59.05 58.67 58.01 57.57 56.86 55.55 55.50 55.58
32.14 29.68 28.41 29.95 34.08 34.04 31.89 29.21 31.00 37.21 37.34 38.73 38.41 38.76 38.25 38.07 35.94 35.63 36.82 35.79 36.50 37.82 38.99 42.38 44.23 44.53 44.98 45.19 45.85 47.43 49.69 47.94 47.69 48.31 49.35 51.85 53.08 53.42 55.24 59.07 58.79 58.55 58.86 57.74 57.32 56.98 55.47 53.74 55.14
29.32 36.00 33.98 32.47 29.19 22.46 30.84 21.62 25.09 32.87 35.42 36.88 38.27 37.41 37.01 35.62 35.75 35.92 35.65 35.54 36.26 38.08 39.43 42.04 43.64 44.40 44.66 44.93 44.87 45.52 48.52 48.81 50.70 51.22 52.17 52.34 53.26 54.64 58.87 58.69 58.38 58.42 58.40 57.70 57.28 57.38 56.59 56.18 54.14
32.51 35.45 33.41 31.78 28.96 27.78 25.78 20.54 27.03 31.18 30.51 34.67 37.09 37.44 36.72 34.83 35.01 34.96 35.20 36.41 37.38 38.30 38.55 40.03 43.77 43.77 44.03 44.15 44.50 45.71 47.93 49.82 52.92 54.78 53.29 51.59 55.29 57.90 59.05 58.79 58.37 58.29 57.70 57.55 57.59 57.19 57.17 56.70 55.37
36.91 34.43 33.14 31.04 28.42 18.84 21.49 22.58 25.38 24.81 31.05 31.49 36.26 37.98 35.70 34.36 34.52 35.39 35.71 36.33 36.75 37.71 38.16 39.72 42.94 43.02 43.45 43.48 43.61 44.19 46.25 47.85 50.84 52.38 52.88 54.47 55.78 57.69 58.42 58.31 58.36 58.58 57.76 57.51 57.75 57.43 55.94 54.40 53.46
34.70 29.25 21.47 19.50 19.29 20.12 27.29 23.88 28.41 31.70 36.54 34.98 36.10 36.64 33.96 33.99 33.34 33.65 33.28 33.76 35.77 36.81 37.44 40.04 42.46 41.80 42.59 42.83 42.78 43.33 45.07 46.65 48.36 49.68 50.25 50.63 51.28 52.19 53.71 54.30 54.80 54.89 55.96 55.68 54.72 53.10 52.00 51.47 50.70
30.75 29.22 23.32 18.11 19.46 21.89 26.06 22.96 28.66 33.46 36.64 36.86 37.34 35.45 33.66 32.99 33.55 33.12 33.57 33.61 35.24 36.72 37.06 39.92 41.72 41.21 41.95 42.32 42.49 42.98 44.16 45.31 46.07 47.69 48.77 49.19 49.03 49.62 51.13 50.98 51.23 51.54 51.62 51.40 51.04 50.39 49.15 47.89 46.50
31.26 27.51 29.87 24.76 18.78 20.04 23.14 27.01 31.69 33.09 32.57 33.64 34.21 32.86 32.08 32.31 32.12 32.26 32.98 33.89 35.33 36.09 36.56 38.00 41.23 41.28 41.44 41.87 42.42 41.91 42.86 43.37 44.19 45.40 46.08 46.79 47.64 47.42 47.62 47.46 47.83 48.19 47.61 47.46 46.90 45.93 45.08 44.91 44.20
31.60 32.91 24.69 22.93 15.06 16.19 22.86 24.38 26.19 29.56 31.95 33.13 32.33 31.57 31.68 31.79 31.48 31.43 32.05 33.47 35.12 35.69 36.27 37.19 41.19 40.93 40.84 41.20 41.14 40.82 40.99 42.66 43.20 43.55 43.55 44.16 45.19 45.85 45.96 46.06 45.89 45.58 45.72 45.71 45.01 43.76 43.18 41.51 40.98
28.87 27.75 28.67 27.18 25.62 22.31 19.58 25.12 30.14 31.05 33.16 33.20 33.51 33.74 32.28 31.23 30.93 30.96 31.66 33.18 35.05 35.61 35.88 36.27 39.64 40.69 39.89 40.17 39.83 39.71 39.53 39.57 40.58 40.78 40.76 41.26 42.25 43.02 42.45 42.51 42.42 41.92 41.39 41.64 40.52 39.79 39.44 38.26 37.80
30.30 29.74 29.48 25.11 22.55 23.43 24.67 25.00 33.49 33.33 33.94 34.22 34.30 35.95 34.71 32.02 31.33 30.68 31.60 32.60 34.02 34.83 35.45 35.62 38.70 39.97 39.97 39.89 39.44 39.09 39.29 39.42 38.47 38.02 38.22 38.73 38.20 38.47 37.92 38.32 38.10 37.57 37.38 38.05 37.82 37.08 37.11 36.28 35.45
MSLP
1013.16 1013.10 1013.58 1013.67 1015.05 1015.06 1014.54 1013.91 1012.86 1012.49 1012.56 1012.49 1012.46 1012.60 1013.61 1014.77 1015.29 1016.36 1016.05 1015.79 1015.53 1015.07 1014.56 1014.52 1014.32 1013.89 1013.46 1013.08 1013.04 1013.09 1013.22 1013.23 1013.27 1013.38 1013.48 1013.54 1013.59 1013.73 1013.83 1014.16 1014.20 1014.09 1014.16 1014.33 1014.38 1014.78 1015.23 1015.39 1015.61
1013.44 1013.28 1013.89 1014.60 1015.24 1015.36 1014.82 1013.90 1013.25 1012.77 1012.68 1012.69 1013.02 1013.60 1014.44 1015.65 1015.86 1016.18 1016.19 1015.81 1015.56 1015.25 1014.85 1014.71 1014.57 1014.23 1013.86 1013.31 1013.15 1013.11 1013.04 1013.04 1013.12 1013.20 1013.29 1013.48 1013.55 1013.64 1013.76 1013.91 1014.19 1014.22 1014.22 1014.24 1014.35 1014.78 1015.11 1015.68 1015.96
1013.53 1013.76 1014.78 1015.06 1015.48 1015.19 1014.71 1013.97 1013.47 1013.09 1013.16 1013.19 1013.84 1014.62 1015.58 1016.50 1016.46 1016.52 1016.33 1015.93 1015.55 1015.29 1015.20 1015.04 1014.73 1014.50 1014.24 1013.87 1013.48 1013.24 1013.14 1012.98 1012.90 1013.03 1013.11 1013.24 1013.50 1013.61 1013.66 1013.91 1014.02 1014.26 1014.33 1014.27 1014.43 1014.67 1015.09 1015.76 1016.05
1014.02 1014.39 1015.21 1014.92 1015.13 1014.57 1014.15 1013.95 1013.62 1013.52 1013.55 1013.68 1014.32 1015.68 1016.49 1016.79 1016.61 1016.65 1016.26 1015.93 1015.88 1015.56 1015.48 1015.23 1014.96 1014.64 1014.45 1014.17 1013.98 1013.51 1013.05 1013.04 1012.96 1012.82 1012.85 1012.97 1013.17 1013.32 1013.62 1013.80 1013.97 1014.12 1014.28 1014.38 1014.49 1014.63 1015.23 1015.59 1016.04
1014.22 1014.89 1015.46 1015.34 1015.01 1014.52 1014.27 1013.96 1013.78 1013.92 1014.19 1014.53 1014.68 1015.98 1016.72 1016.83 1016.69 1016.55 1016.25 1016.13 1016.17 1016.08 1015.77 1015.49 1015.20 1014.85 1014.60 1014.31 1014.03 1013.78 1013.37 1012.99 1012.69 1012.53 1012.57 1012.57 1012.74 1013.03 1013.28 1013.62 1013.82 1013.94 1014.00 1014.17 1014.51 1014.80 1015.31 1015.61 1016.02
1014.63 1015.22 1015.76 1015.93 1015.00 1014.56 1014.32 1014.14 1014.09 1014.39 1014.69 1014.91 1015.30 1016.23 1016.96 1016.97 1016.90 1016.59 1016.42 1016.42 1016.31 1016.21 1015.92 1015.70 1015.45 1015.16 1014.89 1014.60 1014.21 1013.82 1013.54 1013.32 1013.09 1012.31 1012.07 1012.14 1012.41 1012.37 1012.81 1013.13 1013.43 1013.74 1013.87 1014.10 1014.33 1014.76 1015.31 1015.67 1015.98
1014.82 1015.54 1015.83 1015.40 1014.94 1014.66 1014.35 1014.33 1014.53 1014.77 1014.93 1015.13 1015.33 1016.44 1017.05 1017.01 1016.72 1016.57 1016.48 1016.45 1016.33 1016.23 1016.12 1015.92 1015.60 1015.31 1015.01 1014.64 1014.20 1013.80 1013.60 1013.33 1012.95 1012.60 1012.19 1011.71 1011.61 1011.87 1012.20 1012.48 1013.12 1013.32 1013.57 1013.90 1014.26 1014.66 1015.35 1015.74 1015.91
1014.84 1015.80 1015.84 1015.06 1014.82 1014.57 1014.42 1014.53 1014.78 1014.88 1015.07 1015.15 1015.32 1016.21 1016.92 1016.85 1016.82 1016.66 1016.57 1016.65 1016.65 1016.47 1016.20 1015.92 1015.62 1015.29 1014.97 1014.63 1014.13 1013.83 1013.42 1013.00 1012.73 1012.75 1012.38 1011.57 1011.48 1011.30 1011.49 1012.05 1012.56 1012.98 1013.29 1013.51 1014.01 1014.49 1015.24 1015.67 1015.99
1014.87 1015.95 1015.93 1015.11 1014.80 1014.62 1014.63 1014.86 1014.92 1014.90 1015.15 1015.47 1015.84 1016.26 1016.66 1016.79 1016.74 1016.74 1016.91 1017.03 1016.92 1016.68 1016.44 1015.96 1015.61 1015.24 1014.83 1014.52 1014.17 1013.87 1013.29 1012.82 1012.47 1012.17 1012.05 1011.76 1011.26 1011.32 1011.50 1011.73 1012.03 1012.47 1012.89 1013.44 1013.74 1014.25 1014.96 1015.45 1015.92
1015.25 1015.98 1015.35 1015.13 1014.92 1014.84 1014.86 1014.98 1015.15 1015.38 1015.61 1015.96 1016.26 1016.47 1016.54 1016.63 1016.81 1017.09 1017.33 1017.43 1017.25 1016.90 1016.48 1016.18 1015.74 1015.20 1014.78 1014.37 1014.10 1013.82 1013.36 1012.82 1012.35 1012.16 1012.23 1011.74 1010.88 1010.96 1011.09 1011.59 1011.95 1012.25 1012.85 1013.17 1013.62 1014.05 1014.75 1015.39 1015.82
1015.19 1015.53 1015.31 1015.26 1015.13 1015.07 1015.17 1015.29 1015.34 1015.58 1015.84 1015.99 1016.27 1016.43 1016.50 1016.71 1016.98 1017.28 1017.47 1017.48 1017.30 1017.03 1016.69 1016.17 1015.67 1015.10 1014.75 1014.21 1013.91 1013.68 1013.28 1012.81 1012.25 1011.80 1011.86 1011.73 1011.59 1010.96 1010.91 1011.10 1011.58 1012.16 1012.80 1013.26 1013.45 1014.07 1014.62 1015.30 1015.75
1015.33 1015.32 1015.23 1015.39 1015.38 1015.43 1015.52 1015.61 1015.63 1015.65 1015.56 1015.65 1016.02 1016.16 1016.44 1016.78 1017.04 1017.25 1017.34 1017.29 1017.09 1016.81 1016.29 1015.82 1015.58 1015.23 1014.64 1014.14 1013.82 1013.42 1013.12 1012.63 1012.18 1011.81 1011.65 1011.65 1011.14 1010.49 1009.91 1010.91 1011.28 1011.36 1012.40 1013.06 1013.47 1014.00 1014.47 1014.99 1015.46
1015.29 1015.37 1015.44 1015.50 1015.56 1015.60 1015.69 1015.81 1015.93 1015.54 1015.52 1015.69 1015.84 1016.11 1016.46 1016.78 1016.95 1017.07 1017.01 1016.91 1016.83 1016.38 1015.97 1015.62 1015.29 1014.90 1014.49 1014.22 1013.65 1013.25 1012.73 1012.30 1011.90 1011.69 1011.49 1011.51 1011.24 1010.56 1009.63 1010.68 1011.12 1010.97 1012.03 1012.65 1013.26 1013.85 1014.35 1014.97 1015.24
1015.39 1015.46 1015.61 1015.62 1015.66 1015.73 1015.93 1016.03 1016.07 1015.21 1015.43 1015.76 1015.93 1016.23 1016.43 1016.62 1016.76 1016.78 1016.82 1016.79 1016.47 1016.04 1015.86 1015.35 1015.03 1014.68 1014.28 1013.94 1013.50 1012.98 1012.35 1011.93 1011.53 1011.34 1011.22 1011.16 1011.18 1010.75 1010.12 1009.83 1010.77 1010.99 1011.66 1012.33 1012.88 1013.54 1014.43 1014.89 1015.12
1015.56 1015.77 1015.77 1015.63 1015.75 1015.96 1016.12 1015.95 1015.61 1015.33 1015.62 1015.91 1016.05 1016.21 1016.35 1016.41 1016.47 1016.51 1016.52 1016.50 1016.27 1016.05 1015.75 1015.40 1014.76 1014.22 1013.84 1013.54 1012.99 1012.44 1011.57 1011.10 1010.89 1010.76 1010.64 1010.66 1010.69 1010.59 1010.02 1009.43 1009.39 1010.82 1011.38 1011.99 1012.69 1013.50 1014.27 1014.78 1015.07
1016.02 1016.15 1016.13 1015.66 1015.81 1016.07 1016.46 1015.60 1014.92 1015.21 1015.75 1016.05 1016.06 1016.25 1016.26 1016.13 1016.18 1016.26 1016.29 1016.26 1016.13 1016.08 1015.78 1015.27 1014.58 1014.04 1013.48 1013.03 1012.47 1011.83 1011.25 1010.85 1010.47 1010.03 1009.86 1009.96 1010.10 1010.02 1009.83 1009.24 1008.49 1009.29 1010.96 1011.69 1012.54 1013.53 1014.26 1014.82 1015.17
1016.67 1016.61 1016.40 1015.85 1015.83 1016.32 1016.84 1015.80 1015.08 1015.34 1015.86 1016.04 1016.08 1016.10 1016.22 1016.16 1016.18 1016.24 1016.32 1016.31 1016.13 1015.97 1015.66 1015.11 1014.51 1013.79 1013.09 1012.51 1011.98 1011.33 1010.80 1010.37 1009.94 1009.51 1009.31 1009.24 1009.38 1009.51 1009.55 1008.72 1008.45 1009.24 1010.44 1011.70 1012.50 1013.43 1013.79 1014.77 1015.22
1016.70 1016.76 1016.49 1016.34 1016.31 1016.54 1016.72 1015.49 1015.39 1015.46 1015.78 1015.76 1015.83 1015.89 1016.03 1016.16 1016.15 1016.26 1016.28 1016.27 1016.16 1015.92 1015.49 1015.00 1014.22 1013.62 1013.06 1012.26 1011.51 1010.80 1010.17 1009.64 1009.27 1009.15 1008.93 1008.79 1008.93 1008.99 1009.15 1008.60 1008.54 1008.69 1010.15 1011.53 1012.24 1013.09 1013.77 1014.44 1014.94
1016.24 1016.56 1016.75 1016.51 1016.63 1016.92 1016.52 1015.77 1014.55 1014.88 1015.10 1015.30 1015.62 1015.68 1015.79 1016.03 1016.06 1016.24 1016.33 1016.37 1016.20 1015.93 1015.43 1014.72 1014.20 1013.50 1012.86 1012.08 1011.26 1010.42 1009.61 1009.17 1008.78 1008.63 1008.45 1008.32 1008.42 1008.62 1008.73 1008.57 1008.94 1009.89 1010.39 1010.88 1012.05 1012.80 1013.48 1014.60 1015.04
1016.37 1016.86 1017.10 1016.93 1016.99 1017.30 1016.76 1015.27 1014.13 1013.91 1013.97 1014.22 1014.62 1015.22 1015.57 1015.75 1016.06 1016.25 1016.39 1016.47 1016.38 1016.03 1015.45 1014.75 1014.13 1013.49 1012.75 1012.00 1011.05 1010.23 1009.31 1008.77 1008.45 1008.23 1008.11 1007.82 1007.98 1008.25 1008.35 1008.30 1008.97 1009.47 1009.82 1010.65 1011.76 1012.65 1013.06 1014.21 1014.57
1016.59 1017.21 1017.65 1017.87 1017.59 1017.47 1017.54 1015.46 1014.33 1013.90 1013.70 1013.85 1014.22 1014.74 1015.26 1015.55 1016.01 1016.23 1016.42 1016.63 1016.42 1016.08 1015.66 1014.80 1014.08 1013.49 1012.84 1011.92 1010.74 1009.57 1008.58 1008.49 1008.17 1007.79 1007.62 1007.36 1007.60 1007.76 1007.95 1008.06 1008.82 1009.52 1010.17 1010.72 1011.74 1012.30 1012.71 1013.14 1014.33
1016.88 1017.12 1017.69 1018.21 1018.74 1019.16 1018.76 1018.08 1015.41 1014.72 1014.24 1014.15 1014.34 1014.86 1015.21 1015.57 1015.96 1016.21 1016.47 1016.66 1016.60 1016.31 1015.79 1014.82 1014.06 1013.41 1012.73 1011.91 1010.90 1009.82 1008.83 1007.95 1007.32 1007.12 1006.82 1006.96 1007.21 1007.43 1007.53 1008.17 1008.74 1009.18 1009.82 1010.74 1011.69 1012.09 1012.49 1012.84 1013.98
1016.93 1017.40 1017.92 1018.59 1019.40 1020.07 1019.82 1020.00 1015.39 1015.06 1014.48 1014.21 1014.40 1014.92 1015.23 1015.64 1015.98 1016.21 1016.52 1016.78 1016.61 1016.37 1015.96 1015.02 1014.07 1013.62 1012.87 1012.17 1011.32 1010.30 1009.14 1008.12 1006.99 1006.53 1006.57 1006.94 1007.06 1007.26 1007.74 1008.38 1008.81 1009.64 1010.32 1011.02 1011.44 1012.00 1012.40 1012.90 1013.74
1017.11 1017.82 1018.46 1019.28 1020.13 1020.58 1020.00 1019.92 1016.14 1015.02 1014.14 1013.89 1014.14 1014.71 1015.27 1015.78 1016.02 1016.14 1016.57 1016.84 1016.75 1016.37 1015.93 1015.13 1014.37 1013.90 1013.22 1012.54 1011.57 1010.96 1009.85 1008.85 1007.85 1007.27 1007.15 1007.25 1007.36 1007.59 1008.19 1008.66 1009.13 1009.81 1010.54 1011.05 1011.28 1011.53 1012.28 1012.94 1013.81
1017.43 1018.22 1019.27 1020.17 1020.62 1020.39 1019.76 1019.66 1015.10 1013.78 1013.45 1013.36 1013.88 1014.67 1015.42 1015.79 1016.04 1016.13 1016.67 1016.98 1016.89 1016.66 1016.23 1015.49 1014.73 1014.24 1013.64 1012.96 1012.08 1011.54 1010.69 1009.77 1009.02 1008.45 1008.25 1008.27 1008.48 1008.77 1008.82 1009.32 1009.61 1010.04 1010.59 1011.00 1011.35 1012.25 1012.95 1013.58 1014.48
1017.64 1018.06 1018.90 1019.77 1020.49 1019.99 1019.38 1017.61 1013.61 1012.91 1012.74 1012.95 1013.59 1014.60 1015.55 1016.12 1016.10 1016.25 1016.56 1016.98 1016.95 1016.79 1016.48 1015.92 1015.14 1014.67 1014.13 1013.43 1012.81 1012.20 1011.56 1010.84 1010.04 1009.63 1009.51 1009.59 1009.77 1009.92 1009.83 1010.21 1010.63 1010.94 1011.51 1011.49 1012.21 1012.68 1013.55 1014.52 1015.37
1017.72 1018.09 1018.29 1019.29 1020.60 1019.89 1017.55 1015.28 1012.74 1012.63 1012.89 1013.36 1014.00 1015.07 1015.82 1016.18 1016.35 1016.40 1016.50 1016.76 1017.04 1016.92 1016.75 1016.31 1015.64 1015.23 1014.67 1014.15 1013.51 1012.85 1012.50 1011.92 1011.26 1010.81 1010.62 1010.78 1010.75 1010.29 1011.08 1011.48 1011.66 1012.13 1012.55 1012.81 1013.36 1014.75 1014.67 1015.55 1016.11
1017.36 1017.80 1018.48 1019.19 1019.85 1019.16 1016.65 1015.16 1013.01 1012.42 1012.69 1013.37 1014.21 1014.88 1015.70 1016.24 1016.61 1016.67 1016.62 1016.57 1017.06 1017.00 1016.90 1016.57 1016.09 1015.73 1015.33 1014.75 1014.27 1013.89 1013.60 1013.25 1012.67 1012.07 1011.85 1011.88 1012.12 1012.06 1011.77 1012.58 1012.87 1013.41 1013.69 1014.40 1014.41 1015.85 1016.46 1016.86 1017.40
1017.81 1017.84 1018.25 1018.49 1018.63 1018.20 1017.07 1013.36 1011.25 1011.33 1011.73 1012.57 1013.31 1014.08 1014.99 1015.90 1016.39 1016.74 1016.87 1016.57 1016.96 1017.09 1017.04 1016.79 1016.40 1016.21 1015.83 1015.40 1014.94 1014.56 1014.14 1014.14 1013.99 1013.26 1013.32 1013.45 1013.31 1013.51 1013.62 1013.83 1014.03 1014.57 1015.05 1015.35 1015.92 1016.99 1017.61 1018.08 1018.61
1016.97 1017.10 1017.37 1017.80 1018.20 1017.80 1016.90 1012.85 1010.35 1010.68 1011.08 1011.52 1012.29 1013.14 1014.17 1015.17 1015.83 1016.41 1016.76 1016.78 1016.95 1017.20 1017.24 1017.02 1016.71 1016.64 1016.27 1015.98 1015.67 1015.62 1015.30 1014.87 1014.85 1014.97 1014.88 1014.56 1014.43 1014.78 1014.84 1014.98 1015.19 1015.66 1016.13 1016.93 1017.33 1017.99 1018.62 1018.83 1019.73
Wind_Speed
7 6 2 5 4 5 2 2 2 4 2 2 4 2 7 4 3 2 4 6 9 6 7 9 14 14 13 8 9 8 7 10 11 12 12 12 12 12 12 10 9 10 11 11 9 10 12 11 11
4 4 5 3 5 3 4 2 3 0 3 1 6 2 7 3 3 2 3 9 8 6 6 7 11 14 15 11 9 9 9 10 11 12 13 13 13 14 13 13 11 10 11 11 9 14 13 9 10
4 3 3 4 3 4 4 3 1 1 4 2 4 7 4 2 1 2 6 9 8 6 6 5 11 14 16 16 16 12 10 11 11 12 13 14 13 13 14 14 13 11 10 11 13 14 14 9 7
2 4 4 5 4 3 5 3 3 2 2 6 4 7 4 4 2 3 7 8 7 7 7 7 13 15 15 15 15 18 10 11 13 12 13 14 15 14 14 15 14 13 12 12 13 15 13 12 8
3 3 3 2 4 2 1 2 1 2 3 4 4 4 4 1 0 4 6 7 7 7 7 6 14 13 15 16 15 15 16 14 14 13 14 14 14 15 15 16 16 14 14 13 15 14 13 11 10
4 2 4 3 4 3 2 3 1 3 2 1 4 5 4 0 3 5 5 6 5 6 6 7 11 16 18 17 16 16 15 16 17 15 14 14 14 15 16 18 18 15 14 15 16 15 14 13 11
5 4 4 4 5 4 3 1 2 3 0 0 3 6 4 2 5 6 6 7 7 7 6 6 7 9 12 16 16 16 14 16 17 17 16 15 15 15 16 19 17 17 15 16 15 15 13 12 12
5 4 3 3 5 5 3 2 3 2 3 2 2 3 3 3 5 5 6 7 7 7 7 6 6 6 6 7 13 15 16 15 18 15 18 15 14 14 16 17 17 18 16 17 16 17 16 13 11
3 3 3 3 4 3 1 3 3 1 2 2 2 3 2 3 1 5 4 5 5 6 6 5 6 6 6 6 6 11 14 15 14 12 11 13 7 8 11 13 16 18 16 16 18 18 16 13 10
4 3 5 1 0 2 2 2 4 1 2 1 1 0 2 4 6 7 5 5 5 6 7 7 7 6 5 5 6 6 8 8 8 8 7 7 7 7 10 11 13 13 13 15 18 18 15 10 4
3 4 3 1 1 1 3 1 2 3 4 5 5 4 2 4 6 5 3 2 4 5 4 6 7 8 7 4 4 3 3 5 6 6 7 6 7 6 7 6 7 7 10 6 10 10 6 6 4
2 1 2 3 1 1 2 2 3 6 5 7 8 4 2 3 2 1 3 4 3 4 5 6 6 8 8 5 4 4 4 4 5 5 6 6 5 9 6 5 7 9 7 7 6 5 6 6 6
1 2 3 3 3 2 1 4 6 7 6 7 5 4 5 3 1 3 3 4 5 5 6 7 6 7 8 9 5 6 6 4 5 6 6 3 6 6 5 7 7 7 7 7 6 6 5 5 5
1 3 3 4 3 3 3 3 2 4 7 7 4 7 6 5 5 3 4 5 5 6 7 7 8 7 6 8 9 8 7 6 5 5 6 4 4 7 7 10 10 9 7 5 7 7 5 4 5
2 1 3 4 3 2 1 6 10 3 6 7 6 7 7 7 6 6 5 5 6 6 7 8 10 10 7 9 9 9 8 9 7 6 6 7 5 6 7 9 11 8 8 11 7 5 4 4 4
1 3 3 1 5 1 3 10 3 8 8 9 7 7 7 6 5 2 3 4 6 7 7 10 11 11 10 10 10 8 9 8 8 7 5 7 5 6 8 8 10 12 8 7 6 5 4 4 4
4 2 3 5 7 2 4 8 4 7 8 9 8 7 7 6 3 1 3 4 6 6 7 11 11 10 14 13 11 10 11 8 7 7 6 8 6 5 8 9 10 13 10 8 7 5 6 5 4
4 2 4 5 2 3 6 19 10 9 9 11 9 7 7 6 4 1 3 6 7 7 8 9 10 11 13 11 9 8 8 7 7 7 7 10 5 6 7 7 9 13 7 8 8 8 3 3 5
2 2 3 4 1 4 8 16 20 10 9 11 9 8 7 7 4 2 4 6 7 7 9 11 11 12 11 10 9 7 5 6 6 6 9 9 6 6 5 7 11 10 10 11 11 10 8 3 6
2 2 5 5 2 3 5 22 16 8 9 10 13 8 8 6 4 2 5 6 6 7 10 12 11 13 11 9 9 5 5 5 6 6 7 7 5 5 6 8 11 13 8 10 11 11 9 4 7
2 4 3 5 7 3 8 11 5 3 1 4 4 5 5 7 5 2 5 5 7 8 11 12 12 12 12 13 9 6 4 4 4 5 6 6 5 6 7 10 10 10 9 9 10 10 9 10 5
2 3 3 1 4 3 5 8 7 4 6 2 6 7 7 7 3 2 4 6 7 7 9 11 10 12 11 14 11 12 7 6 3 4 3 4 6 5 7 9 9 10 8 9 9 8 8 6 8
3 4 3 2 1 3 4 4 11 5 5 6 8 8 7 6 5 4 5 4 5 6 8 9 10 11 12 12 11 9 10 8 6 2 4 3 4 5 8 9 9 8 6 8 10 9 9 4 5
5 4 5 4 3 3 4 5 9 3 5 3 4 8 8 7 6 5 5 5 5 6 8 9 11 11 12 12 13 14 12 11 7 7 6 4 4 5 6 7 7 8 7 7 8 6 7 6 7
2 4 3 5 3 5 3 2 14 6 6 5 8 8 8 7 6 5 5 4 6 7 8 9 11 12 12 12 13 14 12 11 10 10 8 10 8 7 8 10 8 6 5 7 9 11 11 9 8
5 5 6 6 2 4 2 8 9 4 5 4 5 7 7 7 6 6 6 1 4 6 7 9 11 11 11 12 11 12 12 7 7 10 9 7 8 7 12 12 12 13 13 12 13 10 11 11 11
4 4 2 6 2 3 4 9 8 3 2 3 7 6 8 7 6 7 6 3 2 5 6 7 9 10 11 11 10 13 12 12 10 11 10 8 9 11 11 12 14 14 15 16 15 9 13 11 11
3 4 4 3 2 4 5 6 8 5 8 7 7 9 8 6 6 5 5 5 1 3 3 6 7 8 8 10 11 9 12 12 10 11 13 12 10 12 15 13 15 14 14 13 17 11 11 12 10
3 2 1 3 4 4 3 8 7 5 7 12 11 11 9 9 8 6 5 5 4 3 4 4 5 7 8 9 9 10 11 12 11 12 12 10 12 12 13 13 14 14 13 13 15 12 10 13 12
3 7 6 5 5 2 2 11 5 4 5 8 10 12 9 8 9 8 7 6 5 4 3 3 5 5 5 6 9 10 11 12 14 14 13 12 14 13 13 13 14 14 14 12 12 12 9 12 11
Wind_Direction
336 334 29 40 60 65 275 281 31 20 41 284 295 50 114 61 63 227 239 344 337 341 8 14 4 358 340 230 211 213 219 215 213 206 202 196 183 174 169 171 168 167 163 164 170 142 116 120 120
345 0 39 71 94 92 269 278 93 24 221 36 89 68 45 65 33 94 21 321 337 333 360 17 6 3 347 320 254 232 223 224 226 219 209 207 206 185 179 176 175 175 167 163 162 152 129 113 130
339 93 91 108 113 169 196 217 200 217 356 60 83 51 60 5 20 51 280 310 340 345 357 20 20 9 0 353 348 274 246 239 228 224 218 211 214 201 183 182 179 181 179 173 147 135 131 139 144
36 20 16 96 211 210 183 204 241 148 5 32 110 74 63 267 95 274 308 333 345 348 4 5 13 10 3 357 353 345 278 263 253 234 226 217 209 206 200 188 181 177 177 183 155 140 137 150 155
39 65 52 50 266 126 202 224 342 78 75 354 359 156 127 16 309 325 336 358 16 26 13 359 6 6 3 355 344 344 345 324 263 245 236 222 213 209 202 194 188 184 178 176 167 142 161 140 139
42 102 60 239 238 164 238 289 77 64 351 340 77 113 163 184 280 315 352 25 40 29 6 8 9 9 357 343 342 345 333 332 326 270 237 227 218 208 201 194 189 187 187 167 159 148 157 154 162
109 78 213 233 198 169 209 13 91 106 104 287 141 140 188 323 326 348 14 26 21 21 17 11 5 356 354 349 333 333 332 324 318 306 281 226 210 202 197 188 191 187 186 176 168 149 156 164 173
95 92 250 236 192 214 211 109 146 147 205 161 96 170 181 266 334 29 30 27 23 10 356 349 350 342 338 331 325 334 324 316 310 308 306 265 218 200 189 182 187 185 181 177 162 152 164 172 183
81 67 249 236 180 185 158 156 334 347 109 80 65 98 176 258 65 39 21 10 9 357 333 330 323 331 336 326 327 331 324 313 301 306 297 297 234 209 188 185 179 183 179 172 156 158 161 168 178
98 141 234 277 88 159 151 166 182 134 18 159 186 125 323 43 35 31 14 356 342 338 333 346 319 310 313 317 315 309 318 310 307 314 287 283 275 213 183 180 181 176 176 168 164 160 155 158 167
168 205 179 267 139 89 186 166 210 151 238 210 202 261 310 47 37 31 4 336 321 302 306 316 321 314 299 293 294 295 297 303 301 316 328 287 294 223 194 179 181 172 173 171 160 158 150 162 170
197 164 153 187 285 290 210 290 259 196 231 169 201 211 127 73 31 335 340 318 315 312 304 311 320 316 313 301 295 289 290 289 299 296 304 313 295 250 171 181 184 160 172 168 149 150 159 166 173
195 196 117 182 193 223 267 255 246 236 197 197 206 148 149 162 223 272 280 284 303 323 311 319 311 311 309 310 297 293 280 275 281 294 278 283 297 299 215 195 191 161 158 164 157 152 162 158 173
270 175 189 207 236 252 241 257 19 258 183 208 206 187 188 194 222 257 281 300 324 315 315 296 298 288 286 299 289 288 277 263 268 274 277 249 277 285 256 181 190 170 158 162 160 158 164 166 162
126 328 288 232 207 238 94 268 232 196 180 207 227 202 209 213 220 260 293 292 301 298 300 307 313 310 300 290 283 284 278 288 274 264 264 254 253 266 279 203 164 173 176 165 151 160 143 149 148
34 58 332 255 157 191 72 272 279 184 177 221 231 222 228 227 228 267 332 293 310 309 315 310 310 312 300 305 300 295 284 279 277 266 257 243 236 256 270 226 192 153 155 155 157 144 151 146 153
3 242 229 309 202 125 180 270 276 187 202 231 237 229 226 243 187 133 4 358 352 329 316 311 318 311 321 311 298 285 277 269 266 264 262 250 235 245 256 261 176 157 151 156 153 150 160 157 144
211 241 251 249 227 213 263 263 256 219 214 229 231 234 225 228 198 142 23 8 355 332 321 307 318 324 323 309 298 284 270 265 262 266 258 256 227 242 247 261 151 138 148 156 154 152 122 140 141
161 223 263 274 291 272 236 271 276 225 224 229 225 229 222 204 173 89 24 9 347 332 328 323 322 331 326 313 308 289 279 283 266 259 256 254 215 228 229 231 153 144 172 169 167 141 143 164 118
117 95 280 283 223 248 308 288 283 252 232 211 204 211 209 177 186 24 15 9 341 327 330 319 333 334 326 312 303 276 282 278 265 263 269 263 216 225 230 180 157 174 159 149 160 168 155 174 162
149 165 226 240 324 276 322 293 337 317 331 184 185 178 185 179 171 37 15 359 343 347 327 322 337 335 329 322 312 309 285 254 252 241 244 237 231 217 245 151 158 165 163 164 170 168 173 162 174
221 171 162 340 34 269 31 282 308 322 318 201 189 181 176 155 137 91 31 4 346 336 319 322 338 339 334 328 325 331 324 289 245 217 207 205 209 189 186 143 156 149 146 161 171 172 171 150 161
207 141 133 93 39 7 339 67 270 347 312 240 212 208 188 166 156 106 52 5 334 342 320 313 343 348 339 340 339 341 336 332 313 224 174 140 198 150 152 148 136 138 152 167 170 169 159 144 141
133 93 46 49 67 7 245 126 286 232 220 282 210 210 181 169 164 117 77 12 341 343 333 324 353 355 346 347 358 350 352 346 11 40 56 62 45 98 126 134 138 149 153 163 164 121 118 106 105
106 85 341 348 12 224 164 66 245 255 242 220 203 196 182 177 173 125 80 11 341 2 341 335 1 359 356 346 15 355 355 1 29 44 48 63 53 51 65 75 77 85 90 108 103 102 91 89 94
176 165 162 216 221 277 88 238 254 219 295 206 161 167 168 187 180 138 121 75 346 12 354 346 3 2 7 353 14 13 7 12 37 52 62 69 84 81 71 80 74 78 84 80 80 94 93 92 85
183 193 172 105 30 37 230 280 296 167 97 111 147 167 200 197 191 158 140 126 355 34 10 354 6 6 16 2 7 33 12 18 35 54 61 59 63 77 82 82 84 83 84 82 85 70 86 87 94
152 163 77 355 138 268 279 272 246 231 220 196 191 205 211 204 197 171 161 146 179 66 30 18 21 10 11 25 18 28 33 22 34 55 57 50 65 81 80 84 86 87 89 92 97 86 80 88 82
142 207 132 122 158 180 297 263 212 223 197 205 202 202 198 196 195 183 190 158 154 101 60 32 28 20 26 30 30 31 43 38 32 52 60 63 65 66 78 83 84 82 83 83 85 87 95 88 86
187 188 168 145 215 225 162 271 212 233 262 207 197 195 192 182 187 180 185 178 159 136 105 60 46 26 30 41 51 44 41 52 50 40 41 55 66 60 63 69 73 72 71 77 88 93 87 93 92